Find Starlink 11272

NORAD ID: 60723 Int'l Des: 2024-152 Owner: SPXS Country: US Constellation: starlink operational
LEOCIRCULAR

Current View

Loading 3D Globe...

About Starlink 11272

Starlink 11272 (NORAD 60723) is a starlink constellation satellite (v2 mini d2c) launched Aug 28, 2024 by SPXS of US. It operates in LEO, CIRCULAR orbit with a mass of 960.00 kg.

About Starlink 11272

Description loading...

Upcoming Passes

Passes for default location (London). Set your location on the main map for personalized predictions.

Altitude History

Loading altitude history...

Two-Line Element Set

1 60723U 24152D 26173.67914988 .00000891 00000-0 12213-4 0 9994
2 60723 53.1596 318.7873 0001408 86.3010 273.8169 15.69706836105325
Epoch: Jun 22, 2026 • Age: 13 hours

Current Status

Altitude 366.5 km
Velocity 7.69 km/s
Sub-Earth Point -22.32°S, 161.4°E
Launch Date Aug 28, 2024
Age 1.8 years
Type internet

Technical Details

Classification Payload
Mass 960.00 kg
Dry Mass 910.00 kg
Total Mass 960.00 kg
Length 0.30 m
Diameter 4.10 m
Span 29.00 m
Shape Box + pan
Manufacturer SPXS
Bus Type Starlink V2MD
Phase Status In Orbit
Owner/State SPXS/US

Most Searched